Skip Page Navigation
NASA JPL Caltech
NASA Logo - Jet Propulsion Laboratory + View the NASA Portal
+ Center for Near-Earth Object Studies
JPL Home Earth Solar System Stars & Galaxies Technology
JPL Solar System Dynamics
BODIES ORBITS EPHEMERIDES TOOLS PHYSICAL DATA DISCOVERY FAQ SITE MAP
IMPORTANT: The SSD Announcement email list is now available. Major changes are coming in the near future, including possible hostname and/or URL changes. To be notified of such changes, subscribe to this email list.

Please visit this page for more details.


JPL Small-Body Database Browser
Search: [ help ]  
523699 (2014 GH54)
Classification: TransNeptunian Object          SPK-ID: 2523699
Ephemeris | Orbit Diagram | Orbital Elements | Physical Parameters | Discovery Circumstances ]

[ show orbit diagram ]
Orbital Elements at Epoch 2458600.5 (2019-Apr-27.0) TDB
Reference: JPL 6 (heliocentric ecliptic J2000)
 Element Value Uncertainty (1-sigma)   Units 
e .3827656016378614 4.0109e-05  
a 60.19978083399945 0.0042226 au
q 37.15737550460625 0.0003067 au
i 26.97646181297315 0.00010615 deg
node 31.76975708954155 3.2902e-05 deg
peri 200.2930398739333 0.0053852 deg
M 357.8947453318247 0.0021184 deg
tp 2459598.183822933510
(2022-Jan-18.68382293)
1.0378 TDB
period 170604.6217046785
467.09
17.95
0.04914
d
yr
n .002110142130986171 2.2202e-07 deg/d
Q 83.24218616339265 0.0058389 au
  Orbit Determination Parameters
   # obs. used (total)      119  
   data-arc span      2604 days (7.13 yr)  
   first obs. used      2011-04-03  
   last obs. used      2018-05-20  
   planetary ephem.      DE431  
   SB-pert. ephem.      SB431-N16  
   condition code      2  
   norm. resid. RMS      .52926  
   source      ORB  
   producer      Otto Matic  
   solution date      2018-Oct-04 12:52:36  

Additional Information
 Earth MOID = 36.1601 au 
 Jupiter MOID = 31.8322 au 
 T_jup = 5.687 
[ show covariance matrix ]

Ephemeris | Orbit Diagram | Orbital Elements | Physical Parameters | Discovery Circumstances ]

Physical Parameter Table
Parameter Symbol Value Units Sigma Reference Notes
absolute magnitude H 6.1   n/a MPO450795  

523699 (2014 GH54)          Discovered 2011-Apr-03 by Pan-STARRS 1 at Haleakala
Reference: Last Updated: 2018-10-01
Ephemeris | Orbit Diagram | Orbital Elements | Physical Parameters | Discovery Circumstances ]
ABOUT SSD CREDITS/AWARDS PRIVACY/COPYRIGHT GLOSSARY LINKS
FirstGov
(server date/time)  
NASA Home Page
Site Manager:   Ryan S. Park
Webmaster  Alan B. Chamberlin